Hourly Weather Cerro La Calera

Today, 19 June, Saturday

Time Temperature Precipitation Wind Pressure Humidity
00:00 +7°C° 0.7 mm 2 mps 515 mmHg 96%
01:00 +7°C° 0.7 mm 2 mps 515 mmHg 95%
02:00 +7°C° 0.7 mm 2 mps 515 mmHg 95%
03:00 +7°C° 0.7 mm 2 mps 515 mmHg 95%
04:00 +7°C° 0.7 mm 3 mps 515 mmHg 95%
05:00 +7°C° 0 mm 3 mps 515 mmHg 95%
06:00 +7°C° 0.3 mm 3 mps 516 mmHg 95%
07:00 +7°C° 0.3 mm 2 mps 516 mmHg 95%
08:00 +8°C° 0.3 mm 2 mps 517 mmHg 95%
09:00 +8°C° 0.7 mm 2 mps 517 mmHg 94%
10:00 +8°C° 0.7 mm 2 mps 517 mmHg 93%
11:00 +9°C° 0.7 mm 2 mps 517 mmHg 92%
12:00 +9°C° 0.6 mm 2 mps 517 mmHg 91%
13:00 +9°C° 0.6 mm 2 mps 517 mmHg 90%
14:00 +9°C° 0.6 mm 2 mps 517 mmHg 90%
15:00 +9°C° 0.9 mm 2 mps 517 mmHg 91%
16:00 +9°C° 0.9 mm 2 mps 517 mmHg 93%
17:00 +9°C° 0.9 mm 1 mps 517 mmHg 94%
18:00 +9°C° 0.2 mm 1 mps 517 mmHg 94%
19:00 +9°C° 0.2 mm 1 mps 517 mmHg 94%
20:00 +9°C° 0.2 mm 1 mps 517 mmHg 94%
21:00 +8°C° 0 mm 1 mps 517 mmHg 95%
22:00 +8°C° 0 mm 1 mps 517 mmHg 95%
23:00 +8°C° 0 mm 1 mps 518 mmHg 96%

Tomorrow, 20 June, Sunday

Time Temperature Precipitation Wind Pressure Humidity
00:00 +8°C° 0.1 mm 1 mps 517 mmHg 96%
01:00 +7°C° 0.1 mm 0 mps 517 mmHg 96%
02:00 +7°C° 0.1 mm 0 mps 517 mmHg 96%
03:00 +7°C° 0 mm 0 mps 517 mmHg 96%
04:00 +8°C° 0 mm 1 mps 517 mmHg 95%
05:00 +7°C° 0 mm 1 mps 517 mmHg 95%
06:00 +9°C° 0 mm 1 mps 518 mmHg 90%
07:00 +11°C° 0 mm 1 mps 519 mmHg 85%
08:00 +12°C° 0 mm 1 mps 520 mmHg 80%
09:00 +13°C° 0.4 mm 1 mps 520 mmHg 76%
10:00 +14°C° 0.4 mm 2 mps 521 mmHg 71%
11:00 +15°C° 0.4 mm 2 mps 521 mmHg 67%
12:00 +15°C° 1.2 mm 2 mps 520 mmHg 70%
13:00 +15°C° 1.2 mm 2 mps 520 mmHg 73%
14:00 +14°C° 1.2 mm 2 mps 520 mmHg 75%
15:00 +14°C° 0.9 mm 2 mps 519 mmHg 79%
16:00 +13°C° 0.9 mm 2 mps 519 mmHg 82%
17:00 +12°C° 0.9 mm 2 mps 518 mmHg 86%
18:00 +11°C° 1.3 mm 1 mps 518 mmHg 89%
19:00 +10°C° 1.3 mm 1 mps 518 mmHg 92%
20:00 +10°C° 1.3 mm 1 mps 518 mmHg 95%
21:00 +9°C° 0.4 mm 1 mps 518 mmHg 95%
22:00 +9°C° 0.4 mm 1 mps 518 mmHg 94%
23:00 +9°C° 0.4 mm 1 mps 518 mmHg 94%

Day after tomorrow, 21 June, Monday

Time Temperature Precipitation Wind Pressure Humidity
00:00 +9°C° 0.3 mm 1 mps 518 mmHg 93%
01:00 +9°C° 0.3 mm 1 mps 517 mmHg 93%
02:00 +9°C° 0.3 mm 1 mps 517 mmHg 93%
03:00 +9°C° 0.1 mm 1 mps 517 mmHg 92%
04:00 +9°C° 0.1 mm 1 mps 517 mmHg 92%
05:00 +9°C° 0.1 mm 1 mps 517 mmHg 91%
06:00 +10°C° 0 mm 1 mps 518 mmHg 86%
07:00 +11°C° 0 mm 1 mps 519 mmHg 82%
08:00 +12°C° 0 mm 0 mps 520 mmHg 77%
09:00 +14°C° 0.4 mm 1 mps 520 mmHg 73%
10:00 +15°C° 0.4 mm 1 mps 520 mmHg 70%
11:00 +16°C° 0.4 mm 1 mps 520 mmHg 67%
12:00 +15°C° 1 mm 1 mps 520 mmHg 70%
13:00 +15°C° 1 mm 1 mps 520 mmHg 74%
14:00 +14°C° 1 mm 1 mps 519 mmHg 78%
15:00 +14°C° 1.4 mm 1 mps 519 mmHg 81%
16:00 +13°C° 1.4 mm 1 mps 518 mmHg 83%
17:00 +13°C° 1.4 mm 1 mps 518 mmHg 85%
18:00 +12°C° 0.9 mm 1 mps 518 mmHg 88%
19:00 +11°C° 0.9 mm 1 mps 517 mmHg 90%
20:00 +10°C° 0.9 mm 1 mps 517 mmHg 93%
21:00 +10°C° 0.9 mm 1 mps 517 mmHg 93%
22:00 +9°C° 0.9 mm 1 mps 517 mmHg 94%
23:00 +9°C° 0.9 mm 1 mps 517 mmHg 94%

22 June, Tuesday

Time Temperature Precipitation Wind Pressure Humidity
00:00 +9°C° 0.6 mm 1 mps 517 mmHg 95%
01:00 +9°C° 0.6 mm 1 mps 517 mmHg 96%
02:00 +9°C° 0.6 mm 1 mps 517 mmHg 96%
03:00 +9°C° 0.3 mm 1 mps 517 mmHg 96%
04:00 +8°C° 0.3 mm 0 mps 517 mmHg 96%
05:00 +8°C° 0.3 mm 0 mps 517 mmHg 95%
06:00 +9°C° 0.2 mm 0 mps 517 mmHg 91%
07:00 +11°C° 0.2 mm 1 mps 518 mmHg 86%
08:00 +12°C° 0.2 mm 1 mps 518 mmHg 82%
09:00 +13°C° 0.4 mm 1 mps 519 mmHg 78%
10:00 +14°C° 0.4 mm 1 mps 519 mmHg 74%
11:00 +15°C° 0.4 mm 1 mps 520 mmHg 69%
12:00 +15°C° 0.9 mm 1 mps 519 mmHg 72%
13:00 +14°C° 0.9 mm 1 mps 519 mmHg 74%
14:00 +14°C° 0.9 mm 1 mps 518 mmHg 76%
15:00 +13°C° 1.4 mm 1 mps 518 mmHg 81%
16:00 +12°C° 1.4 mm 1 mps 517 mmHg 85%
17:00 +11°C° 1.4 mm 0 mps 517 mmHg 90%
18:00 +11°C° 1.6 mm 1 mps 517 mmHg 91%
19:00 +10°C° 1.6 mm 1 mps 517 mmHg 92%
20:00 +8°C° 1.6 mm 2 mps 517 mmHg 94%
21:00 +9°C° 0.3 mm 1 mps 517 mmHg 91%
22:00 +9°C° 0.3 mm 1 mps 517 mmHg 89%
23:00 +9°C° 0.3 mm 1 mps 517 mmHg 87%

23 June, Wednesday

Time Temperature Precipitation Wind Pressure Humidity
00:00 +9°C° 0.3 mm 1 mps 517 mmHg 88%
01:00 +9°C° 0.3 mm 1 mps 516 mmHg 89%
02:00 +8°C° 0.3 mm 1 mps 516 mmHg 89%
03:00 +8°C° 0.4 mm 1 mps 516 mmHg 90%
04:00 +9°C° 0.4 mm 1 mps 517 mmHg 92%
05:00 +8°C° 0.4 mm 0 mps 517 mmHg 93%
06:00 +9°C° 0.4 mm 1 mps 517 mmHg 92%
07:00 +9°C° 0.4 mm 1 mps 518 mmHg 91%
08:00 +10°C° 0.4 mm 1 mps 518 mmHg 91%
09:00 +10°C° 1 mm 1 mps 518 mmHg 89%
10:00 +10°C° 1 mm 1 mps 518 mmHg 88%
11:00 +11°C° 1 mm 1 mps 518 mmHg 86%
12:00 +12°C° 0.5 mm 1 mps 519 mmHg 80%
13:00 +13°C° 0.5 mm 1 mps 519 mmHg 74%
14:00 +14°C° 0.5 mm 1 mps 519 mmHg 69%
15:00 +14°C° 0.5 mm 1 mps 519 mmHg 72%
16:00 +13°C° 0.5 mm 1 mps 518 mmHg 76%
17:00 +13°C° 0.5 mm 1 mps 518 mmHg 79%
18:00 +12°C° 0.8 mm 1 mps 518 mmHg 84%
19:00 +10°C° 0.8 mm 1 mps 517 mmHg 88%
20:00 +9°C° 0.8 mm 1 mps 517 mmHg 92%
21:00 +9°C° 0.1 mm 1 mps 517 mmHg 92%
22:00 +9°C° 0.1 mm 1 mps 517 mmHg 92%
23:00 +9°C° 0.1 mm 1 mps 517 mmHg 92%

24 June, Thursday

Time Temperature Precipitation Wind Pressure Humidity
00:00 +9°C° 0.1 mm 1 mps 517 mmHg 91%
01:00 +9°C° 0.1 mm 1 mps 517 mmHg 90%
02:00 +8°C° 0.1 mm 1 mps 516 mmHg 90%
03:00 +8°C° 0.2 mm 1 mps 516 mmHg 90%
04:00 +8°C° 0.2 mm 1 mps 516 mmHg 91%
05:00 +8°C° 0.2 mm 1 mps 516 mmHg 92%
06:00 +9°C° 0.1 mm 1 mps 517 mmHg 89%
07:00 +10°C° 0.1 mm 1 mps 518 mmHg 86%
08:00 +11°C° 0.1 mm 1 mps 518 mmHg 84%
09:00 +12°C° 0.6 mm 1 mps 519 mmHg 79%
10:00 +13°C° 0.6 mm 1 mps 519 mmHg 74%
11:00 +14°C° 0.6 mm 2 mps 519 mmHg 69%
12:00 +14°C° 1 mm 2 mps 519 mmHg 69%
13:00 +14°C° 1 mm 2 mps 518 mmHg 70%
14:00 +14°C° 1 mm 2 mps 518 mmHg 70%
15:00 +13°C° 1 mm 2 mps 517 mmHg 75%
16:00 +12°C° 1 mm 2 mps 516 mmHg 81%
17:00 +10°C° 1 mm 2 mps 516 mmHg 86%
18:00 +9°C° 0.7 mm 2 mps 516 mmHg 88%
19:00 +10°C° 0.7 mm 1 mps 516 mmHg 91%
20:00 +10°C° 0.7 mm 1 mps 516 mmHg 93%
21:00 +9°C° 0.4 mm 1 mps 516 mmHg 93%
22:00 +9°C° 0.4 mm 1 mps 516 mmHg 93%
23:00 +9°C° 0.4 mm 1 mps 516 mmHg 93%
Show more

We Need Your Consent

Meteoprog and our Service Providers may store and access personal data such as cookies, device identifiers or other similar technologies on your device and process such data to personalise content and ads, as well as provide social media features and to analyse the traffic.

  • Store and/or access information on your device

    Cookies, device identifiers or other information can be stored or accessed on your device for the purposes indicated above.

  • Personalised ads and content, ad and content measurement, audience insights, and products development

    Ads and content can be personalised based on a profile. More data can be added to better personalise ads and content. Ad and content performance can be measured. Insights about the audience who saw the ads and content can be derived. Such data can be used to develop or improve user’s experience, systems and software.

By clicking ‘I Agree’ you will allow the use of indicated cookies, device identifiers, web beacons or other similar technologies. Your settings can be changed in the browser on your device.

For certain purposes, legitimate interests may be relied on, rather than consent. You can read more about this in our Privacy and Cookie Policy.